Weather History for Cagliari, Italy

Change the Weather History Date:

Sunday, February 24, 2013

  Actual Average Record
Temperature  
Mean Temperature 42 °F -  
Max Temperature 48 °F 60 °F 66 °F (2007)
Min Temperature 37 °F 45 °F 33 °F (1998)
Degree Days  
Heating Degree Days 22    
Moisture  
Dew Point 33 °F    
Average Humidity 67    
Maximum Humidity 87    
Minimum Humidity 43    
Precipitation  
Precipitation 0.00 in 0.06 in - ()
Sea Level Pressure  
Sea Level Pressure 29.84 in    
Wind  
Wind Speed 7 mph ()    
Max Wind Speed 20 mph    
Max Gust Speed 29 mph    
Visibility 6.2 miles    
Events Rain    
Averages and records for this station are not official NWS values.
T = Trace of Precipitation, MM = Missing Value Source: Averaged Metar Reports

Daily Weather History Graph

Daily Weather History Graph

Search for Another Location

Airport:

Trip Planner

Search our weather history database for the weather conditions in past years. The results will help you decide how hot, cold, wet, or windy it might be!

Date:

Astronomy

Feb. 24, 2013 Rise Set
Actual Time 7:03 AM CET 6:10 PM CET
Civil Twilight 6:36 AM CET 6:37 PM CET
Nautical Twilight 6:05 AM CET 7:09 PM CET
Astronomical Twilight 5:34 AM CET 7:40 PM CET
Moon 5:05 PM CET (2/24) 5:51 AM CET (2/24)
Length of Visible Light 12h 01m
Length of Day
11h 07m
Waxing Gibbous, 98% of the Moon is Illuminated
Feb 24
Waxing Gibbous
Feb 25
Full
Mar 4
Last Quarter
Mar 11
New
Mar 19
First Quarter

Hourly Weather History & Observations

Time (CET) Temp. Windchill Dew Point Humidity Pressure Visibility Wind Dir Wind Speed Gust Speed Precip Events Conditions
12:15 AM 44.6 °F 40.2 °F 33.8 °F 66% 29.71 in 6.2 mi WNW 8.1 mph - N/A   Scattered Clouds
12:45 AM 44.6 °F 41.4 °F 33.8 °F 66% 29.71 in 6.2 mi WNW 5.8 mph - N/A   Scattered Clouds
1:00 AM 45 °F - 34 °F 54% 29.73 in 6 mi WNW 5.8 mph - -   Mostly Cloudy
1:15 AM 42.8 °F 40.1 °F 33.8 °F 70% 29.74 in 6.2 mi WNW 4.6 mph - N/A   Scattered Clouds
1:45 AM 42.8 °F - 33.8 °F 70% 29.74 in 6.2 mi WNW 2.3 mph - N/A   Scattered Clouds
2:15 AM 42.8 °F 41.1 °F 33.8 °F 70% 29.74 in 6.2 mi WNW 3.5 mph - N/A   Mostly Cloudy
2:45 AM 42.8 °F 39.3 °F 33.8 °F 70% 29.74 in 6.2 mi WNW 5.8 mph - N/A   Mostly Cloudy
3:15 AM 42.8 °F 38.0 °F 30.2 °F 61% 29.74 in 6.2 mi WNW 8.1 mph - N/A   Scattered Clouds
3:45 AM 41.0 °F 36.4 °F 30.2 °F 65% 29.74 in 6.2 mi WNW 6.9 mph - N/A   Scattered Clouds
4:00 AM 42 °F - 31 °F 54% 29.77 in 6 mi WNW 6.9 mph - -   Partly Cloudy
4:15 AM 41.0 °F 37.1 °F 30.2 °F 65% 29.74 in 6.2 mi West 5.8 mph - N/A   Scattered Clouds
4:45 AM 41.0 °F 37.1 °F 30.2 °F 65% 29.77 in 6.2 mi West 5.8 mph - N/A   Scattered Clouds
5:15 AM 39.2 °F 34.2 °F 28.4 °F 65% 29.77 in 6.2 mi West 6.9 mph - N/A   Scattered Clouds
5:45 AM 41.0 °F 32.5 °F 32.0 °F 70% 29.77 in 6.2 mi West 17.3 mph 28.8 mph N/A Rain Light Rain
6:15 AM 41.0 °F 31.9 °F 32.0 °F 70% 29.74 in 6.2 mi West 19.6 mph - N/A Rain Light Rain
6:45 AM 41.0 °F - 33.8 °F 76% 29.77 in 6.2 mi WNW 2.3 mph - N/A   Scattered Clouds
7:00 AM 41 °F - 33 °F 66% 29.77 in 6 mi WNW 2.3 mph - -   Partly Cloudy
7:15 AM 41.0 °F - 33.8 °F 76% 29.77 in 6.2 mi West 2.3 mph - N/A   Mostly Cloudy
7:45 AM 41.0 °F - 33.8 °F 76% 29.80 in 6.2 mi West 2.3 mph - N/A   Scattered Clouds
8:15 AM 42.8 °F 41.1 °F 35.6 °F 76% 29.80 in 6.2 mi West 3.5 mph - N/A   Scattered Clouds
8:45 AM 42.8 °F 38.6 °F 35.6 °F 76% 29.83 in 6.2 mi West 6.9 mph - N/A   Scattered Clouds
9:15 AM 46.4 °F 41.9 °F 33.8 °F 62% 29.83 in 6.2 mi West 9.2 mph - N/A   Scattered Clouds
9:45 AM 48.2 °F - 32.0 °F 54% 29.83 in 6.2 mi WNW 12.7 mph - N/A   Scattered Clouds
10:00 AM 47 °F - 32 °F 44% 29.85 in 9 mi WNW 12.7 mph - -   Mostly Cloudy
10:15 AM 48.2 °F - 32.0 °F 54% 29.83 in 6.2 mi West 11.5 mph - N/A   Scattered Clouds
10:45 AM 48.2 °F - 32.0 °F 54% 29.83 in 6.2 mi WNW 13.8 mph - N/A   Scattered Clouds
11:15 AM 48.2 °F - 32.0 °F 54% 29.86 in 6.2 mi WNW 15.0 mph 27.6 mph N/A   Scattered Clouds
11:45 AM 48.2 °F - 32.0 °F 54% 29.86 in 6.2 mi West 11.5 mph - N/A   Scattered Clouds
12:15 PM 48.2 °F - 33.8 °F 58% 29.86 in 6.2 mi West 13.8 mph - N/A   Scattered Clouds
12:45 PM 48.2 °F - 33.8 °F 58% 29.86 in 6.2 mi NW 17.3 mph - N/A   Scattered Clouds
1:00 PM 48 °F - 33 °F 45% 29.86 in 9 mi NW 17.3 mph - -   Mostly Cloudy
1:15 PM 48.2 °F - 32.0 °F 54% 29.86 in 6.2 mi NW 16.1 mph - N/A   Scattered Clouds
1:45 PM 48.2 °F - 33.8 °F 58% 29.83 in 6.2 mi NW 15.0 mph - N/A   Scattered Clouds
2:15 PM 48.2 °F - 33.8 °F 58% 29.83 in 6.2 mi WNW 11.5 mph - N/A   Scattered Clouds
2:45 PM 48.2 °F - 32.0 °F 54% 29.83 in 6.2 mi NW 11.5 mph - N/A   Scattered Clouds
3:15 PM 48.2 °F - 33.8 °F 58% 29.86 in 6.2 mi NW 10.4 mph - N/A   Scattered Clouds
3:45 PM 48.2 °F - 32.0 °F 54% 29.86 in 6.2 mi NW 9.2 mph - N/A   Scattered Clouds
4:00 PM 48 °F - 33 °F 43% 29.87 in 9 mi NW 9.2 mph - -   Mostly Cloudy
4:15 PM 46.4 °F 41.9 °F 33.8 °F 62% 29.86 in 6.2 mi NNW 9.2 mph - N/A Rain Light Rain
4:45 PM 44.6 °F 38.4 °F 33.8 °F 66% 29.86 in 5.0 mi NW 12.7 mph - N/A Rain Light Rain
5:15 PM 44.6 °F 40.2 °F 35.6 °F 71% 29.89 in 5.0 mi NW 8.1 mph - N/A Rain Light Rain
5:45 PM 44.6 °F 40.2 °F 35.6 °F 71% 29.89 in 6.2 mi NNW 8.1 mph - N/A   Scattered Clouds
6:15 PM 42.8 °F 37.5 °F 33.8 °F 70% 29.89 in 6.2 mi NW 9.2 mph - N/A   Scattered Clouds
6:45 PM 42.8 °F 36.2 °F 35.6 °F 76% 29.92 in 5.0 mi NW 12.7 mph - N/A Rain Light Rain
7:00 PM 42 °F - 37 °F 75% 29.93 in 5 mi NW 12.7 mph - - Rain Light Rain
7:15 PM 41.0 °F 36.4 °F 35.6 °F 81% 29.92 in 5.0 mi NW 6.9 mph - N/A Rain Light Rain
7:45 PM 41.0 °F 38.0 °F 33.8 °F 76% 29.92 in 6.2 mi NW 4.6 mph - N/A   Scattered Clouds
8:15 PM 41.0 °F 35.8 °F 35.6 °F 81% 29.92 in 6.2 mi NW 8.1 mph - N/A   Scattered Clouds
8:45 PM 39.2 °F 33.6 °F 33.8 °F 81% 29.95 in 6.2 mi NNW 8.1 mph - N/A   Scattered Clouds
9:15 PM 39.2 °F - 35.6 °F 87% 29.95 in 6.2 mi NNW 2.3 mph - N/A   Mostly Cloudy
9:45 PM 39.2 °F 37.0 °F 33.8 °F 81% 29.95 in 6.2 mi West 3.5 mph - N/A   Mostly Cloudy
10:00 PM 38 °F - 34 °F 79% 29.97 in 6 mi West 3.5 mph - -   Partly Cloudy
10:15 PM 37.4 °F - 33.8 °F 87% 29.95 in 6.2 mi NNW 2.3 mph - N/A   Scattered Clouds
10:45 PM 37.4 °F 34.9 °F 33.8 °F 87% 29.95 in 6.2 mi NNE 3.5 mph - N/A   Scattered Clouds
11:15 PM 37.4 °F - 33.8 °F 87% 29.95 in 6.2 mi NNE 2.3 mph - N/A   Scattered Clouds
11:45 PM 37.4 °F - 33.8 °F 87% 29.98 in 6.2 mi NNW 2.3 mph - N/A   Scattered Clouds